Date,TemperatureHighF,TemperatureAvgF,TemperatureLowF,DewpointHighF,DewpointAvgF,DewpointLowF,HumidityHigh,HumidityAvg,HumidityLow,PressureMaxIn,PressureMinIn,WindSpeedMaxMPH,WindSpeedAvgMPH,GustSpeedMaxMPH,PrecipitationSumIn
2013-2-1,32.2,27.1,20.3,17.0,7.3,0.4,61,43,27,30.23,29.75,17,6,17,0.00
2013-2-2,30.2,23.4,15.6,14.2,5.8,1.5,66,47,30,30.38,30.18,13,4,13,0.00
2013-2-3,29.7,24.1,17.4,20.8,18.0,13.9,88,78,65,30.19,29.86,8,1,9,0.00
2013-2-4,29.5,22.0,15.1,17.1,9.8,1.5,88,62,31,30.09,29.86,17,4,17,0.00
2013-2-5,24.8,21.6,16.7,21.1,15.3,10.5,90,77,67,30.13,30.06,2,0,2,0.00
2013-2-6,38.5,29.0,23.5,27.8,17.2,-0.2,93,65,31,30.44,30.04,14,3,14,0.05
2013-2-7,32.4,23.7,13.5,10.6,4.6,-0.7,72,45,25,30.66,30.44,8,1,8,0.00
2013-2-8,32.0,27.2,17.8,30.6,23.1,6.7,99,85,52,30.60,29.67,14,3,14,0.00
2013-2-9,25.2,18.8,11.3,21.1,15.4,5.0,96,87,74,30.34,29.66,14,4,14,0.00
2013-2-10,38.7,19.5,3.4,15.1,6.3,-2.1,84,61,22,30.53,30.34,9,2,9,0.01
2013-2-11,46.0,32.4,10.8,45.5,30.6,7.2,99,93,85,30.49,29.75,13,2,13,0.22
2013-2-12,43.5,37.6,31.6,40.8,28.7,23.3,98,72,50,30.04,29.76,21,5,21,0.00
2013-2-13,33.6,32.2,30.6,23.3,21.5,20.4,67,64,62,30.01,29.98,8,4,8,0.00
2013-2-16,35.8,33.8,32.5,29.1,28.1,25.4,85,79,74,29.95,29.91,5,1,5,0.02
2013-2-17,25.3,20.9,14.5,15.3,3.8,-1.3,90,48,33,29.86,29.56,30,9,30,0.00
2013-2-18,31.3,21.2,12.9,1.8,-3.0,-10.6,52,36,17,30.32,29.86,22,7,22,0.00
2013-2-19,48.4,33.8,15.3,43.0,24.3,1.3,96,70,40,30.32,29.72,11,2,11,0.25
2013-2-20,40.3,31.0,24.6,38.7,18.1,7.0,96,61,36,29.94,29.69,21,6,21,0.02
2013-2-21,33.6,27.0,23.2,15.3,12.2,9.0,67,54,39,30.35,29.92,20,6,20,0.00
2013-2-22,41.2,30.1,17.8,23.6,19.0,13.3,85,64,42,30.50,30.35,10,2,10,0.00
2013-2-23,37.0,32.7,27.9,32.2,28.3,22.2,97,84,72,30.46,30.00,8,1,8,0.17
2013-2-24,35.6,33.8,31.6,35.1,33.2,31.1,99,98,95,30.02,29.81,10,2,10,0.71
2013-2-25,40.8,33.4,26.8,37.4,31.2,26.6,99,92,76,30.38,30.02,7,0,7,0.17
2013-2-26,43.2,36.0,31.5,39.1,30.0,25.9,99,80,55,30.46,30.25,8,1,8,0.00
2013-2-27,42.4,38.6,34.5,42.2,37.7,29.8,99,97,81,30.25,29.71,14,3,14,1.36
2013-2-28,45.3,36.6,29.8,41.2,35.3,29.3,99,95,81,29.77,29.66,4,1,4,0.00